Weather History for KSPW - August, 2013

Change the Weather History Date:

Friday, August 23, 2013

  Actual Average Record
Temperature  
Mean Temperature 76 °F -  
Max Temperature 87 °F 79 °F 94 °F (1971)
Min Temperature 64 °F 58 °F 44 °F (1987)
Cooling Degree Days 10    
Growing Degree Days 26 (Base 50)    
Moisture  
Dew Point 68 °F    
Average Humidity 78    
Maximum Humidity 94    
Minimum Humidity 58    
Precipitation  
Precipitation 0.00 in - - ()
Sea Level Pressure  
Sea Level Pressure 30.06 in    
Wind  
Wind Speed 8 mph (ESE)    
Max Wind Speed 16 mph    
Max Gust Speed 22 mph    
Visibility 8 miles    
Events      
Averages and records for this station are not official NWS values.
T = Trace of Precipitation, MM = Missing Value Source: NWS Daily Summary

Daily Weather History Graph

Daily Weather History Graph

Search for Another Location

Airport or City:

Trip Planner

Search our weather history database for the weather conditions in past years. The results will help you decide how hot, cold, wet, or windy it might be!

Date:

Astronomy

Aug. 23, 2013 Rise Set
Actual Time 6:35 AM CDT 8:10 PM CDT
Civil Twilight 6:05 AM CDT 8:40 PM CDT
Nautical Twilight 5:29 AM CDT 9:16 PM CDT
Astronomical Twilight 4:50 AM CDT 9:55 PM CDT
Moon 9:22 PM CDT (8/23) 9:38 AM CDT (8/23)
Length of Visible Light 14h 34m
Length of Day
13h 34m
Waning Gibbous, 91% of the Moon is Illuminated
Aug 23
Waning Gibbous
Aug 28
Last Quarter
Sep 5
New
Sep 12
First Quarter
Sep 19
Full

Hourly Weather History & Observations

Time (CDT) Temp. Heat Index Dew Point Humidity Pressure Visibility Wind Dir Wind Speed Gust Speed Precip Events Conditions
12:53 AM 66.9 °F - 64.0 °F 90% 30.10 in 7.0 mi East 4.6 mph - N/A   Clear
1:53 AM 66.0 °F - 63.0 °F 90% 30.10 in 6.0 mi ENE 4.6 mph - N/A   Clear
2:53 AM 64.9 °F - 62.1 °F 90% 30.10 in 7.0 mi East 3.5 mph - N/A   Partly Cloudy
3:12 AM 64.4 °F - 62.6 °F 94% 30.12 in 6.0 mi ENE 3.5 mph - N/A   Mostly Cloudy
3:44 AM 64.4 °F - 62.6 °F 94% 30.12 in 7.0 mi ENE 4.6 mph - N/A   Scattered Clouds
3:53 AM 64.9 °F - 62.1 °F 90% 30.09 in 7.0 mi ENE 4.6 mph - N/A   Clear
4:53 AM 64.0 °F - 62.1 °F 93% 30.09 in 7.0 mi Calm Calm - N/A   Clear
5:53 AM 64.0 °F - 62.1 °F 93% 30.09 in 5.0 mi East 5.8 mph - N/A   Clear
6:53 AM 64.0 °F - 62.1 °F 93% 30.10 in 3.0 mi East 4.6 mph - N/A   Clear
7:00 AM 64.4 °F - 62.6 °F 94% 30.11 in 2.5 mi East 4.6 mph - N/A   Clear
7:45 AM 68.0 °F - 64.4 °F 88% 30.12 in 3.0 mi SE 5.8 mph - N/A   Clear
7:53 AM 69.1 °F - 66.0 °F 90% 30.10 in 6.0 mi SSE 8.1 mph - N/A   Clear
8:53 AM 73.0 °F - 68.0 °F 84% 30.10 in 9.0 mi SE 8.1 mph - N/A   Clear
9:53 AM 77.0 °F - 68.0 °F 74% 30.10 in 10.0 mi SSE 9.2 mph - N/A   Partly Cloudy
10:53 AM 81.0 °F 83.8 °F 68.0 °F 65% 30.09 in 10.0 mi SE 15.0 mph - N/A   Partly Cloudy
11:53 AM 81.0 °F 84.1 °F 69.1 °F 67% 30.08 in 10.0 mi SE 13.8 mph - N/A   Scattered Clouds
12:53 PM 82.9 °F 87.0 °F 70.0 °F 65% 30.06 in 10.0 mi SE 13.8 mph - N/A   Mostly Cloudy
1:20 PM 84.2 °F 88.4 °F 69.8 °F 62% 30.08 in 10.0 mi SE 16.1 mph - N/A   Mostly Cloudy
1:46 PM 82.4 °F 86.3 °F 69.8 °F 66% 30.07 in 10.0 mi SSE 16.1 mph 21.9 mph N/A   Overcast
1:53 PM 82.9 °F 87.0 °F 70.0 °F 65% 30.05 in 10.0 mi SE 15.0 mph - N/A   Mostly Cloudy
2:35 PM 84.2 °F 89.6 °F 71.6 °F 66% 30.06 in 10.0 mi SSE 16.1 mph - N/A   Mostly Cloudy
2:53 PM 84.9 °F 90.1 °F 71.1 °F 63% 30.03 in 10.0 mi SSE 13.8 mph - N/A   Partly Cloudy
3:53 PM 87.1 °F 93.6 °F 72.0 °F 61% 30.02 in 10.0 mi SE 15.0 mph 21.9 mph N/A   Scattered Clouds
4:16 PM 87.8 °F 93.8 °F 71.6 °F 58% 30.04 in 10.0 mi SE 11.5 mph - N/A   Mostly Cloudy
4:36 PM 86.0 °F 91.8 °F 71.6 °F 62% 30.04 in 10.0 mi SE 12.7 mph - N/A   Scattered Clouds
4:53 PM 86.0 °F 91.5 °F 71.1 °F 61% 30.01 in 10.0 mi SE 13.8 mph - N/A   Scattered Clouds
5:53 PM 84.0 °F 90.2 °F 73.0 °F 69% 30.01 in 9.0 mi SE 12.7 mph - N/A   Mostly Cloudy
6:53 PM 82.0 °F 87.4 °F 73.0 °F 74% 30.01 in 9.0 mi SE 11.5 mph - N/A   Partly Cloudy
7:53 PM 80.1 °F 83.8 °F 72.0 °F 76% 30.00 in 8.0 mi SE 11.5 mph - N/A   Clear
8:53 PM 78.1 °F - 72.0 °F 81% 30.00 in 8.0 mi ESE 10.4 mph - N/A   Clear
9:53 PM 77.0 °F - 71.1 °F 82% 30.01 in 8.0 mi SE 11.5 mph - N/A   Clear
10:53 PM 75.0 °F - 71.1 °F 87% 30.02 in 7.0 mi SE 10.4 mph - N/A   Clear
11:53 PM 75.0 °F - 70.0 °F 84% 30.01 in 6.0 mi SE 11.5 mph - N/A   Haze